Data supplied by UK-AIR on 19/3/2020
All Data GMT hour ending 
Status: R =Ratified P=Provisional,P*=As supplied
,,Ballymena Antrim Road,,,,,,,,,,,,,,,,,,,,,,,
Date,time,"Nitric oxide",status,unit,"Nitrogen dioxide",status,unit,"Nitrogen oxides as nitrogen dioxide",status,unit
 
01-01-2019,01:00,2.39737,R,ugm-3,2.93865,R,ugm-3,6.61457,R,ugm-3
01-01-2019,02:00,2.92479,R,ugm-3,4.15941,R,ugm-3,8.64404,R,ugm-3
01-01-2019,03:00,1.47438,R,ugm-3,3.15123,R,ugm-3,5.41192,R,ugm-3
01-01-2019,04:00,1.04286,R,ugm-3,2.96728,R,ugm-3,4.56631,R,ugm-3
01-01-2019,05:00,0.75517,R,ugm-3,2.45003,R,ugm-3,3.60795,R,ugm-3
01-01-2019,06:00,0.53941,R,ugm-3,1.03326,R,ugm-3,1.86035,R,ugm-3
01-01-2019,07:00,0.68325,R,ugm-3,2.27844,R,ugm-3,3.32608,R,ugm-3
01-01-2019,08:00,2.04975,R,ugm-3,5.59508,R,ugm-3,8.73799,R,ugm-3
01-01-2019,09:00,12.73004,R,ugm-3,27.66603,R,ugm-3,47.18516,R,ugm-3
01-01-2019,10:00,34.84580,R,ugm-3,51.93379,R,ugm-3,105.36327,R,ugm-3
01-01-2019,11:00,45.09456,R,ugm-3,52.84961,R,ugm-3,121.99364,R,ugm-3
01-01-2019,12:00,34.09063,R,ugm-3,42.94436,R,ugm-3,95.21592,R,ugm-3
01-01-2019,13:00,14.67191,R,ugm-3,30.04408,R,ugm-3,52.54070,R,ugm-3
01-01-2019,14:00,11.65123,R,ugm-3,21.20232,R,ugm-3,39.06728,R,ugm-3
01-01-2019,15:00,12.11871,R,ugm-3,23.07872,R,ugm-3,41.66049,R,ugm-3
01-01-2019,16:00,5.89753,R,ugm-3,17.62221,R,ugm-3,26.66497,R,ugm-3
01-01-2019,17:00,53.22165,R,ugm-3,73.47987,R,ugm-3,155.08526,R,ugm-3
01-01-2019,18:00,71.70539,R,ugm-3,79.07577,R,ugm-3,189.02249,R,ugm-3
01-01-2019,19:00,136.90191,R,ugm-3,92.42118,R,ugm-3,302.33451,R,ugm-3
01-01-2019,20:00,126.65314,R,ugm-3,83.61299,R,ugm-3,277.81176,R,ugm-3
01-01-2019,21:00,75.80489,R,ugm-3,56.72332,R,ugm-3,172.95586,R,ugm-3
01-01-2019,22:00,92.31080,R,ugm-3,63.09688,R,ugm-3,204.63813,R,ugm-3
01-01-2019,23:00,84.39947,R,ugm-3,57.97693,R,ugm-3,187.38764,R,ugm-3
01-01-2019,24:00,38.72954,R,ugm-3,38.08642,R,ugm-3,97.47089,R,ugm-3
02-01-2019,01:00,6.23604,R,ugm-3,26.77454,R,ugm-3,36.33633,R,ugm-3
02-01-2019,02:00,25.99947,R,ugm-3,29.27153,R,ugm-3,69.13682,R,ugm-3
02-01-2019,03:00,26.65905,R,ugm-3,27.84642,R,ugm-3,68.72306,R,ugm-3
02-01-2019,04:00,2.48242,R,ugm-3,10.63793,R,ugm-3,14.44426,R,ugm-3
02-01-2019,05:00,1.22322,R,ugm-3,4.38736,R,ugm-3,6.26294,R,ugm-3
02-01-2019,06:00,1.76288,R,ugm-3,4.12413,R,ugm-3,6.82717,R,ugm-3
02-01-2019,07:00,3.13001,R,ugm-3,6.99310,R,ugm-3,11.79238,R,ugm-3
02-01-2019,08:00,6.33198,R,ugm-3,10.03911,R,ugm-3,19.74801,R,ugm-3
02-01-2019,09:00,8.74244,R,ugm-3,11.59044,R,ugm-3,24.99533,R,ugm-3
02-01-2019,10:00,5.57646,R,ugm-3,12.04390,R,ugm-3,20.59435,R,ugm-3
02-01-2019,11:00,5.21668,R,ugm-3,10.39505,R,ugm-3,18.39386,R,ugm-3
02-01-2019,12:00,12.48406,R,ugm-3,19.84624,R,ugm-3,38.98820,R,ugm-3
02-01-2019,13:00,24.14065,R,ugm-3,30.63587,R,ugm-3,67.65102,R,ugm-3
02-01-2019,14:00,21.76616,R,ugm-3,25.36189,R,ugm-3,58.73621,R,ugm-3
02-01-2019,15:00,53.35408,R,ugm-3,67.71216,R,ugm-3,149.52061,R,ugm-3
02-01-2019,16:00,34.71793,R,ugm-3,41.33132,R,ugm-3,94.56473,R,ugm-3
02-01-2019,17:00,52.70649,R,ugm-3,55.50216,R,ugm-3,136.31766,R,ugm-3
02-01-2019,18:00,42.56094,R,ugm-3,56.67062,R,ugm-3,121.92982,R,ugm-3
02-01-2019,19:00,35.97713,R,ugm-3,51.70076,R,ugm-3,106.86492,R,ugm-3
02-01-2019,20:00,31.69585,R,ugm-3,53.01797,R,ugm-3,101.61759,R,ugm-3
02-01-2019,21:00,15.86591,R,ugm-3,32.71613,R,ugm-3,57.04352,R,ugm-3
02-01-2019,22:00,24.64433,R,ugm-3,51.47353,R,ugm-3,89.26098,R,ugm-3
02-01-2019,23:00,11.18889,R,ugm-3,32.77819,R,ugm-3,49.93424,R,ugm-3
02-01-2019,24:00,6.29600,R,ugm-3,23.52292,R,ugm-3,33.17665,R,ugm-3
03-01-2019,01:00,3.50339,R,ugm-3,18.19570,R,ugm-3,23.56748,R,ugm-3
03-01-2019,02:00,6.33489,R,ugm-3,15.41650,R,ugm-3,25.12986,R,ugm-3
03-01-2019,03:00,1.40375,R,ugm-3,11.68315,R,ugm-3,13.83554,R,ugm-3
03-01-2019,04:00,3.56337,R,ugm-3,11.02594,R,ugm-3,16.48971,R,ugm-3
03-01-2019,05:00,11.48198,R,ugm-3,14.63982,R,ugm-3,32.24528,R,ugm-3
03-01-2019,06:00,12.16586,R,ugm-3,17.93953,R,ugm-3,36.59360,R,ugm-3
03-01-2019,07:00,17.96085,R,ugm-3,20.63070,R,ugm-3,48.17028,R,ugm-3
03-01-2019,08:00,47.65563,R,ugm-3,45.06764,R,ugm-3,118.13859,R,ugm-3
03-01-2019,09:00,95.09530,R,ugm-3,61.60943,R,ugm-3,207.42019,R,ugm-3
03-01-2019,10:00,84.72912,R,ugm-3,72.92982,R,ugm-3,202.84599,R,ugm-3
03-01-2019,11:00,74.50692,R,ugm-3,70.75862,R,ugm-3,185.00096,R,ugm-3
03-01-2019,12:00,50.89506,R,ugm-3,61.84215,R,ugm-3,139.88015,R,ugm-3
03-01-2019,13:00,26.09542,R,ugm-3,33.73950,R,ugm-3,73.75191,R,ugm-3
03-01-2019,14:00,43.44437,R,ugm-3,47.28945,R,ugm-3,113.90322,R,ugm-3
03-01-2019,15:00,48.30352,R,ugm-3,59.94275,R,ugm-3,134.00711,R,ugm-3
03-01-2019,16:00,88.00455,R,ugm-3,84.90552,R,ugm-3,219.84394,R,ugm-3
03-01-2019,17:00,68.35200,R,ugm-3,73.92768,R,ugm-3,178.73262,R,ugm-3
03-01-2019,18:00,68.42398,R,ugm-3,71.16314,R,ugm-3,176.07845,R,ugm-3
03-01-2019,19:00,83.82928,R,ugm-3,80.57790,R,ugm-3,209.11434,R,ugm-3
03-01-2019,20:00,61.44121,R,ugm-3,68.82497,R,ugm-3,163.03351,R,ugm-3
03-01-2019,21:00,45.89194,R,ugm-3,62.73690,R,ugm-3,133.10356,R,ugm-3
03-01-2019,22:00,48.73544,R,ugm-3,60.86168,R,ugm-3,135.58831,R,ugm-3
03-01-2019,23:00,20.22845,R,ugm-3,46.46252,R,ugm-3,77.47904,R,ugm-3
03-01-2019,24:00,10.18621,R,ugm-3,30.51866,R,ugm-3,46.13730,R,ugm-3
04-01-2019,01:00,3.74506,R,ugm-3,20.78452,R,ugm-3,26.52688,R,ugm-3
04-01-2019,02:00,5.32952,R,ugm-3,12.70303,R,ugm-3,20.87484,R,ugm-3
04-01-2019,03:00,5.68962,R,ugm-3,10.04079,R,ugm-3,18.76475,R,ugm-3
04-01-2019,04:00,2.12460,R,ugm-3,11.60717,R,ugm-3,14.86485,R,ugm-3
04-01-2019,05:00,6.01371,R,ugm-3,16.15674,R,ugm-3,25.37763,R,ugm-3
04-01-2019,06:00,16.60072,R,ugm-3,18.80134,R,ugm-3,44.25542,R,ugm-3
04-01-2019,07:00,89.26937,R,ugm-3,64.10851,R,ugm-3,200.98630,R,ugm-3
04-01-2019,08:00,100.54057,R,ugm-3,77.46026,R,ugm-3,231.62032,R,ugm-3
04-01-2019,09:00,90.24164,R,ugm-3,70.24796,R,ugm-3,208.61654,R,ugm-3
04-01-2019,10:00,52.75499,R,ugm-3,48.54170,R,ugm-3,129.43156,R,ugm-3
04-01-2019,11:00,38.17085,R,ugm-3,41.96534,R,ugm-3,100.49315,R,ugm-3
04-01-2019,12:00,36.62241,R,ugm-3,44.84826,R,ugm-3,101.00183,R,ugm-3
04-01-2019,13:00,35.10998,R,ugm-3,37.78491,R,ugm-3,91.61946,R,ugm-3
04-01-2019,14:00,35.36205,R,ugm-3,28.29863,R,ugm-3,82.51968,R,ugm-3
04-01-2019,15:00,38.63898,R,ugm-3,37.46068,R,ugm-3,96.70629,R,ugm-3
04-01-2019,16:00,44.25658,R,ugm-3,41.28162,R,ugm-3,109.14076,R,ugm-3
04-01-2019,17:00,40.94363,R,ugm-3,55.17857,R,ugm-3,117.95793,R,ugm-3
04-01-2019,18:00,58.80471,R,ugm-3,57.74774,R,ugm-3,147.91371,R,ugm-3
04-01-2019,19:00,62.40573,R,ugm-3,67.03458,R,ugm-3,162.72203,R,ugm-3
04-01-2019,20:00,44.68870,R,ugm-3,56.84038,R,ugm-3,125.36209,R,ugm-3
04-01-2019,21:00,46.99335,R,ugm-3,64.32809,R,ugm-3,136.38356,R,ugm-3
04-01-2019,22:00,23.62271,R,ugm-3,46.75086,R,ugm-3,82.97185,R,ugm-3
04-01-2019,23:00,24.41494,R,ugm-3,42.37099,R,ugm-3,79.80671,R,ugm-3
04-01-2019,24:00,6.94997,R,ugm-3,22.46444,R,ugm-3,33.12091,R,ugm-3
05-01-2019,01:00,4.75554,R,ugm-3,23.48185,R,ugm-3,30.77357,R,ugm-3
05-01-2019,02:00,4.17911,R,ugm-3,18.59565,R,ugm-3,25.00353,R,ugm-3
05-01-2019,03:00,3.92692,R,ugm-3,17.34183,R,ugm-3,23.36302,R,ugm-3
05-01-2019,04:00,5.51210,R,ugm-3,9.98975,R,ugm-3,18.44152,R,ugm-3
05-01-2019,05:00,0.54040,R,ugm-3,3.24437,R,ugm-3,4.07297,R,ugm-3
05-01-2019,06:00,1.54915,R,ugm-3,4.75237,R,ugm-3,7.12770,R,ugm-3
05-01-2019,07:00,6.37674,R,ugm-3,9.11653,R,ugm-3,18.89407,R,ugm-3
05-01-2019,08:00,7.06125,R,ugm-3,13.10161,R,ugm-3,23.92871,R,ugm-3
05-01-2019,09:00,12.10500,R,ugm-3,18.20915,R,ugm-3,36.76989,R,ugm-3
05-01-2019,10:00,27.02009,R,ugm-3,29.62052,R,ugm-3,71.05074,R,ugm-3
05-01-2019,11:00,44.09678,R,ugm-3,51.52032,R,ugm-3,119.13444,R,ugm-3
05-01-2019,12:00,26.91201,R,ugm-3,30.52164,R,ugm-3,71.78614,R,ugm-3
05-01-2019,13:00,31.52344,R,ugm-3,30.46544,R,ugm-3,78.80070,R,ugm-3
05-01-2019,14:00,29.18170,R,ugm-3,32.07614,R,ugm-3,76.82079,R,ugm-3
05-01-2019,15:00,25.21875,R,ugm-3,28.47927,R,ugm-3,67.14748,R,ugm-3
05-01-2019,16:00,45.86210,R,ugm-3,50.96317,R,ugm-3,121.28407,R,ugm-3
05-01-2019,17:00,63.69535,R,ugm-3,74.30510,R,ugm-3,171.96995,R,ugm-3
05-01-2019,18:00,44.06076,R,ugm-3,48.63397,R,ugm-3,116.19285,R,ugm-3
05-01-2019,19:00,39.37728,R,ugm-3,47.16014,R,ugm-3,107.53779,R,ugm-3
05-01-2019,20:00,27.09214,R,ugm-3,42.29464,R,ugm-3,83.83535,R,ugm-3
05-01-2019,21:00,21.86826,R,ugm-3,41.19687,R,ugm-3,74.72773,R,ugm-3
05-01-2019,22:00,15.70768,R,ugm-3,34.06823,R,ugm-3,58.15300,R,ugm-3
05-01-2019,23:00,13.18580,R,ugm-3,31.65588,R,ugm-3,51.87383,R,ugm-3
05-01-2019,24:00,8.28616,R,ugm-3,20.55734,R,ugm-3,33.26261,R,ugm-3
06-01-2019,01:00,6.29557,R,ugm-3,17.52347,R,ugm-3,27.17654,R,ugm-3
06-01-2019,02:00,3.02764,R,ugm-3,13.32440,R,ugm-3,17.96671,R,ugm-3
06-01-2019,03:00,6.45176,R,ugm-3,12.64133,R,ugm-3,22.53388,R,ugm-3
06-01-2019,04:00,2.37886,R,ugm-3,11.52603,R,ugm-3,15.17357,R,ugm-3
06-01-2019,05:00,3.35203,R,ugm-3,11.84563,R,ugm-3,16.98534,R,ugm-3
06-01-2019,06:00,3.02764,R,ugm-3,10.07831,R,ugm-3,14.72063,R,ugm-3
06-01-2019,07:00,9.98400,R,ugm-3,17.13340,R,ugm-3,32.44199,R,ugm-3
06-01-2019,08:00,8.97479,R,ugm-3,16.01980,R,ugm-3,29.78096,R,ugm-3
06-01-2019,09:00,14.59755,R,ugm-3,21.26972,R,ugm-3,43.65232,R,ugm-3
06-01-2019,10:00,14.20107,R,ugm-3,21.82102,R,ugm-3,43.59570,R,ugm-3
06-01-2019,11:00,18.70649,R,ugm-3,25.78343,R,ugm-3,54.46632,R,ugm-3
06-01-2019,12:00,19.71571,R,ugm-3,21.51834,R,ugm-3,51.74866,R,ugm-3
06-01-2019,13:00,14.52547,R,ugm-3,22.39937,R,ugm-3,44.67144,R,ugm-3
06-01-2019,14:00,39.79184,R,ugm-3,32.57590,R,ugm-3,93.58921,R,ugm-3
06-01-2019,15:00,29.48345,R,ugm-3,36.54877,R,ugm-3,81.75609,R,ugm-3
06-01-2019,16:00,21.91435,R,ugm-3,32.52805,R,ugm-3,66.12958,R,ugm-3
06-01-2019,17:00,30.31245,R,ugm-3,33.57912,R,ugm-3,80.05756,R,ugm-3
06-01-2019,18:00,23.13982,R,ugm-3,29.68651,R,ugm-3,65.16708,R,ugm-3
06-01-2019,19:00,17.58915,R,ugm-3,22.68415,R,ugm-3,49.65380,R,ugm-3
06-01-2019,20:00,15.31842,R,ugm-3,21.01367,R,ugm-3,44.50158,R,ugm-3
06-01-2019,21:00,17.69728,R,ugm-3,15.44113,R,ugm-3,42.57658,R,ugm-3
06-01-2019,22:00,9.58753,R,ugm-3,12.47587,R,ugm-3,27.17654,R,ugm-3
06-01-2019,23:00,8.54227,R,ugm-3,9.54915,R,ugm-3,22.64712,R,ugm-3
06-01-2019,24:00,3.92872,R,ugm-3,5.97901,R,ugm-3,12.00297,R,ugm-3
07-01-2019,01:00,1.10584,R,ugm-3,2.68662,R,ugm-3,4.38221,R,ugm-3
07-01-2019,02:00,1.22604,R,ugm-3,3.67342,R,ugm-3,5.55332,R,ugm-3
07-01-2019,03:00,1.26210,R,ugm-3,3.10813,R,ugm-3,5.04332,R,ugm-3
07-01-2019,04:00,2.45207,R,ugm-3,2.53019,R,ugm-3,6.28999,R,ugm-3
07-01-2019,05:00,2.48813,R,ugm-3,4.11823,R,ugm-3,7.93331,R,ugm-3
07-01-2019,06:00,2.63237,R,ugm-3,5.99373,R,ugm-3,10.02997,R,ugm-3
07-01-2019,07:00,8.14954,R,ugm-3,8.86750,R,ugm-3,21.36328,R,ugm-3
07-01-2019,08:00,13.37822,R,ugm-3,17.96359,R,ugm-3,38.47657,R,ugm-3
07-01-2019,09:00,23.69135,R,ugm-3,18.24363,R,ugm-3,54.56986,R,ugm-3
07-01-2019,10:00,14.06336,R,ugm-3,20.87971,R,ugm-3,42.44323,R,ugm-3
07-01-2019,11:00,10.96221,R,ugm-3,13.33811,R,ugm-3,30.14659,R,ugm-3
07-01-2019,12:00,12.83732,R,ugm-3,14.93963,R,ugm-3,34.62324,R,ugm-3
07-01-2019,13:00,15.83029,R,ugm-3,15.96046,R,ugm-3,40.23323,R,ugm-3
07-01-2019,14:00,11.57523,R,ugm-3,17.49815,R,ugm-3,35.24658,R,ugm-3
07-01-2019,15:00,11.89976,R,ugm-3,17.34053,R,ugm-3,35.58658,R,ugm-3
07-01-2019,16:00,22.89803,R,ugm-3,29.32001,R,ugm-3,64.42984,R,ugm-3
07-01-2019,17:00,24.34043,R,ugm-3,25.29504,R,ugm-3,62.61651,R,ugm-3
07-01-2019,18:00,16.65967,R,ugm-3,26.75873,R,ugm-3,52.30320,R,ugm-3
07-01-2019,19:00,16.29907,R,ugm-3,20.85166,R,ugm-3,45.84322,R,ugm-3
07-01-2019,20:00,8.11348,R,ugm-3,15.94944,R,ugm-3,28.38993,R,ugm-3
07-01-2019,21:00,5.33686,R,ugm-3,13.23687,R,ugm-3,21.41995,R,ugm-3
07-01-2019,22:00,3.46175,R,ugm-3,6.70536,R,ugm-3,12.01330,R,ugm-3
07-01-2019,23:00,2.74055,R,ugm-3,5.20452,R,ugm-3,9.40664,R,ugm-3
07-01-2019,24:00,2.01935,R,ugm-3,4.78035,R,ugm-3,7.87665,R,ugm-3
08-01-2019,01:00,1.05824,R,ugm-3,0.87286,R,ugm-3,2.49547,R,ugm-3
08-01-2019,02:00,2.77789,R,ugm-3,12.18806,R,ugm-3,16.44742,R,ugm-3
08-01-2019,03:00,0.93799,R,ugm-3,1.22739,R,ugm-3,2.66562,R,ugm-3
08-01-2019,04:00,2.27282,R,ugm-3,2.98060,R,ugm-3,6.46554,R,ugm-3
08-01-2019,05:00,2.99434,R,ugm-3,6.07120,R,ugm-3,10.66247,R,ugm-3
08-01-2019,06:00,4.22094,R,ugm-3,6.45905,R,ugm-3,12.93108,R,ugm-3
08-01-2019,07:00,11.97738,R,ugm-3,25.19226,R,ugm-3,43.55731,R,ugm-3
08-01-2019,08:00,50.57917,R,ugm-3,52.43771,R,ugm-3,129.99136,R,ugm-3
08-01-2019,09:00,43.00312,R,ugm-3,60.02738,R,ugm-3,125.96458,R,ugm-3
08-01-2019,10:00,19.01229,R,ugm-3,32.38428,R,ugm-3,61.53605,R,ugm-3
08-01-2019,11:00,42.96704,R,ugm-3,46.41432,R,ugm-3,112.29620,R,ugm-3
08-01-2019,12:00,32.72133,R,ugm-3,45.90363,R,ugm-3,96.07564,R,ugm-3
08-01-2019,13:00,26.04719,R,ugm-3,37.81814,R,ugm-3,77.75661,R,ugm-3
08-01-2019,14:00,20.34711,R,ugm-3,30.50772,R,ugm-3,61.70620,R,ugm-3
08-01-2019,15:00,13.81728,R,ugm-3,30.02768,R,ugm-3,51.21387,R,ugm-3
08-01-2019,16:00,30.01560,R,ugm-3,43.53011,R,ugm-3,89.55338,R,ugm-3
08-01-2019,17:00,76.15737,R,ugm-3,78.83790,R,ugm-3,195.61090,R,ugm-3
08-01-2019,18:00,68.97816,R,ugm-3,79.29683,R,ugm-3,185.06187,R,ugm-3
08-01-2019,19:00,55.95456,R,ugm-3,77.20384,R,ugm-3,162.99963,R,ugm-3
08-01-2019,20:00,53.24883,R,ugm-3,81.40928,R,ugm-3,163.05635,R,ugm-3
08-01-2019,21:00,38.74610,R,ugm-3,59.80560,R,ugm-3,119.21546,R,ugm-3
08-01-2019,22:00,74.57001,R,ugm-3,74.18242,R,ugm-3,188.52150,R,ugm-3
08-01-2019,23:00,53.14060,R,ugm-3,60.76074,R,ugm-3,142.24185,R,ugm-3
08-01-2019,24:00,7.10706,R,ugm-3,24.20940,R,ugm-3,35.10674,R,ugm-3
09-01-2019,01:00,7.60359,R,ugm-3,20.35621,R,ugm-3,32.01489,R,ugm-3
09-01-2019,02:00,5.77488,R,ugm-3,20.13278,R,ugm-3,28.98747,R,ugm-3
09-01-2019,03:00,2.56260,R,ugm-3,17.47075,R,ugm-3,21.40002,R,ugm-3
09-01-2019,04:00,16.63887,R,ugm-3,27.73204,R,ugm-3,53.24462,R,ugm-3
09-01-2019,05:00,13.82362,R,ugm-3,32.44605,R,ugm-3,53.64196,R,ugm-3
09-01-2019,06:00,16.60278,R,ugm-3,31.76086,R,ugm-3,57.21810,R,ugm-3
09-01-2019,07:00,91.74839,R,ugm-3,55.72447,R,ugm-3,196.40338,R,ugm-3
09-01-2019,08:00,197.46477,R,ugm-3,78.67887,R,ugm-3,381.45396,R,ugm-3
09-01-2019,09:00,216.41359,R,ugm-3,89.35920,R,ugm-3,421.18875,R,ugm-3
09-01-2019,10:00,210.31388,R,ugm-3,79.18516,R,ugm-3,401.66194,R,ugm-3
09-01-2019,11:00,124.84567,R,ugm-3,67.87052,R,ugm-3,259.29787,R,ugm-3
09-01-2019,12:00,161.76880,R,ugm-3,82.32434,R,ugm-3,330.36638,R,ugm-3
09-01-2019,13:00,90.59342,R,ugm-3,70.38084,R,ugm-3,209.28880,R,ugm-3
09-01-2019,14:00,99.11136,R,ugm-3,70.09206,R,ugm-3,222.06070,R,ugm-3
09-01-2019,15:00,108.20680,R,ugm-3,75.04833,R,ugm-3,240.96310,R,ugm-3
09-01-2019,16:00,139.60770,R,ugm-3,75.94503,R,ugm-3,290.00719,R,ugm-3
09-01-2019,17:00,125.67581,R,ugm-3,78.97220,R,ugm-3,271.67242,R,ugm-3
09-01-2019,18:00,90.95435,R,ugm-3,72.60885,R,ugm-3,212.07024,R,ugm-3
09-01-2019,19:00,54.93354,R,ugm-3,63.41287,R,ugm-3,147.64312,R,ugm-3
09-01-2019,20:00,59.44516,R,ugm-3,57.63042,R,ugm-3,148.77840,R,ugm-3
09-01-2019,21:00,48.61726,R,ugm-3,57.14701,R,ugm-3,131.69244,R,ugm-3
09-01-2019,22:00,38.47513,R,ugm-3,53.73889,R,ugm-3,112.73327,R,ugm-3
09-01-2019,23:00,41.65132,R,ugm-3,51.42319,R,ugm-3,115.28765,R,ugm-3
09-01-2019,24:00,17.10808,R,ugm-3,38.53568,R,ugm-3,64.76770,R,ugm-3
10-01-2019,01:00,5.34421,R,ugm-3,19.90901,R,ugm-3,28.10336,R,ugm-3
10-01-2019,02:00,10.76065,R,ugm-3,22.87178,R,ugm-3,39.37121,R,ugm-3
10-01-2019,03:00,8.30520,R,ugm-3,26.97763,R,ugm-3,39.71209,R,ugm-3
10-01-2019,04:00,4.91090,R,ugm-3,24.56924,R,ugm-3,32.09918,R,ugm-3
10-01-2019,05:00,26.39608,R,ugm-3,27.02008,R,ugm-3,67.49350,R,ugm-3
10-01-2019,06:00,13.10777,R,ugm-3,28.70383,R,ugm-3,48.80212,R,ugm-3
10-01-2019,07:00,21.05187,R,ugm-3,35.66893,R,ugm-3,67.94800,R,ugm-3
10-01-2019,08:00,26.90161,R,ugm-3,51.52660,R,ugm-3,92.77516,R,ugm-3
10-01-2019,09:00,61.45845,R,ugm-3,67.11313,R,ugm-3,161.34810,R,ugm-3
10-01-2019,10:00,90.99606,R,ugm-3,88.80495,R,ugm-3,228.33029,R,ugm-3
10-01-2019,11:00,67.52485,R,ugm-3,64.17446,R,ugm-3,167.71113,R,ugm-3
10-01-2019,12:00,39.32330,R,ugm-3,41.28625,R,ugm-3,101.58113,R,ugm-3
10-01-2019,13:00,35.82067,R,ugm-3,45.63424,R,ugm-3,100.55850,R,ugm-3
10-01-2019,14:00,41.59820,R,ugm-3,48.53572,R,ugm-3,112.31873,R,ugm-3
10-01-2019,15:00,45.28137,R,ugm-3,51.75105,R,ugm-3,121.18152,R,ugm-3
10-01-2019,16:00,49.14509,R,ugm-3,64.06364,R,ugm-3,139.41840,R,ugm-3
10-01-2019,17:00,38.24001,R,ugm-3,53.62806,R,ugm-3,112.26192,R,ugm-3
10-01-2019,18:00,51.67276,R,ugm-3,65.52833,R,ugm-3,144.75879,R,ugm-3
10-01-2019,19:00,19.64359,R,ugm-3,37.94187,R,ugm-3,68.06163,R,ugm-3
10-01-2019,20:00,27.55159,R,ugm-3,41.09908,R,ugm-3,83.34425,R,ugm-3
10-01-2019,21:00,15.70765,R,ugm-3,29.31922,R,ugm-3,53.40395,R,ugm-3
10-01-2019,22:00,7.33024,R,ugm-3,18.58713,R,ugm-3,29.82668,R,ugm-3
10-01-2019,23:00,11.41062,R,ugm-3,21.81836,R,ugm-3,39.31440,R,ugm-3
10-01-2019,24:00,5.41643,R,ugm-3,18.90821,R,ugm-3,27.21329,R,ugm-3
11-01-2019,01:00,19.12275,R,ugm-3,27.38867,R,ugm-3,56.70981,R,ugm-3
11-01-2019,02:00,4.51576,R,ugm-3,13.94408,R,ugm-3,20.86815,R,ugm-3
11-01-2019,03:00,5.38279,R,ugm-3,11.36370,R,ugm-3,19.61720,R,ugm-3
11-01-2019,04:00,1.91468,R,ugm-3,7.41298,R,ugm-3,10.34878,R,ugm-3
11-01-2019,05:00,12.78864,R,ugm-3,22.80966,R,ugm-3,42.41864,R,ugm-3
11-01-2019,06:00,17.70179,R,ugm-3,27.10345,R,ugm-3,54.24582,R,ugm-3
11-01-2019,07:00,94.43362,R,ugm-3,70.76553,R,ugm-3,215.56173,R,ugm-3
11-01-2019,08:00,127.30837,R,ugm-3,68.57678,R,ugm-3,263.78023,R,ugm-3
11-01-2019,09:00,123.65964,R,ugm-3,87.59073,R,ugm-3,277.19953,R,ugm-3
11-01-2019,10:00,123.44288,R,ugm-3,88.37798,R,ugm-3,277.65442,R,ugm-3
11-01-2019,11:00,121.81721,R,ugm-3,76.20039,R,ugm-3,262.98417,R,ugm-3
11-01-2019,12:00,97.57660,R,ugm-3,70.95018,R,ugm-3,220.56554,R,ugm-3
11-01-2019,13:00,35.00619,R,ugm-3,43.33021,R,ugm-3,97.00562,R,ugm-3
11-01-2019,14:00,30.02079,R,ugm-3,33.17676,R,ugm-3,79.20799,R,ugm-3
11-01-2019,15:00,35.43970,R,ugm-3,36.06957,R,ugm-3,90.40970,R,ugm-3
11-01-2019,16:00,41.61727,R,ugm-3,43.94018,R,ugm-3,107.75243,R,ugm-3
11-01-2019,17:00,58.27140,R,ugm-3,55.47786,R,ugm-3,144.82610,R,ugm-3
11-01-2019,18:00,68.96472,R,ugm-3,58.47141,R,ugm-3,164.21585,R,ugm-3
11-01-2019,19:00,39.16069,R,ugm-3,42.87365,R,ugm-3,102.91921,R,ugm-3
11-01-2019,20:00,26.48043,R,ugm-3,38.54837,R,ugm-3,79.15113,R,ugm-3
11-01-2019,21:00,17.99080,R,ugm-3,27.28579,R,ugm-3,54.87129,R,ugm-3
11-01-2019,22:00,10.04306,R,ugm-3,11.83749,R,ugm-3,27.23663,R,ugm-3
11-01-2019,23:00,7.94774,R,ugm-3,13.74245,R,ugm-3,25.92882,R,ugm-3
11-01-2019,24:00,3.25135,R,ugm-3,5.76148,R,ugm-3,10.74681,R,ugm-3
12-01-2019,01:00,2.55408,R,ugm-3,6.93467,R,ugm-3,10.85087,R,ugm-3
12-01-2019,02:00,0.97585,R,ugm-3,1.80451,R,ugm-3,3.30079,R,ugm-3
12-01-2019,03:00,1.12042,R,ugm-3,1.98121,R,ugm-3,3.69916,R,ugm-3
12-01-2019,04:00,0.39757,R,ugm-3,0.52861,R,ugm-3,1.13820,R,ugm-3
12-01-2019,05:00,0.46985,R,ugm-3,0.53159,R,ugm-3,1.25202,R,ugm-3
12-01-2019,06:00,2.34927,R,ugm-3,2.25958,R,ugm-3,5.86175,R,ugm-3
12-01-2019,07:00,4.77083,R,ugm-3,10.04243,R,ugm-3,17.35760,R,ugm-3
12-01-2019,08:00,4.33712,R,ugm-3,8.94323,R,ugm-3,15.59339,R,ugm-3
12-01-2019,09:00,10.87894,R,ugm-3,13.02631,R,ugm-3,29.70711,R,ugm-3
12-01-2019,10:00,11.13194,R,ugm-3,14.11804,R,ugm-3,31.18677,R,ugm-3
12-01-2019,11:00,14.16792,R,ugm-3,15.83687,R,ugm-3,37.56071,R,ugm-3
12-01-2019,12:00,11.96322,R,ugm-3,18.93282,R,ugm-3,37.27616,R,ugm-3
12-01-2019,13:00,12.61379,R,ugm-3,9.68332,R,ugm-3,29.02419,R,ugm-3
12-01-2019,14:00,13.15593,R,ugm-3,12.94958,R,ugm-3,33.12172,R,ugm-3
12-01-2019,15:00,7.80681,R,ugm-3,10.28160,R,ugm-3,22.25188,R,ugm-3
12-01-2019,16:00,6.36111,R,ugm-3,9.93736,R,ugm-3,19.69092,R,ugm-3
12-01-2019,17:00,8.49352,R,ugm-3,10.87905,R,ugm-3,23.90227,R,ugm-3
12-01-2019,18:00,12.03550,R,ugm-3,13.13097,R,ugm-3,31.58515,R,ugm-3
12-01-2019,19:00,8.52967,R,ugm-3,11.90493,R,ugm-3,24.98357,R,ugm-3
12-01-2019,20:00,6.97553,R,ugm-3,9.33671,R,ugm-3,20.03238,R,ugm-3
12-01-2019,21:00,5.31297,R,ugm-3,14.04853,R,ugm-3,22.19497,R,ugm-3
12-01-2019,22:00,3.21670,R,ugm-3,5.36854,R,ugm-3,10.30074,R,ugm-3
12-01-2019,23:00,2.78298,R,ugm-3,3.87097,R,ugm-3,8.13815,R,ugm-3
12-01-2019,24:00,1.37342,R,ugm-3,1.82092,R,ugm-3,3.92680,R,ugm-3
13-01-2019,01:00,0.53033,R,ugm-3,1.31330,R,ugm-3,2.12647,R,ugm-3
13-01-2019,02:00,0.77140,R,ugm-3,2.00691,R,ugm-3,3.18970,R,ugm-3
13-01-2019,03:00,0.97630,R,ugm-3,1.35098,R,ugm-3,2.84795,R,ugm-3
13-01-2019,04:00,2.24187,R,ugm-3,4.02413,R,ugm-3,7.46162,R,ugm-3
13-01-2019,05:00,0.36159,R,ugm-3,0.58475,R,ugm-3,1.13918,R,ugm-3
13-01-2019,06:00,0.39775,R,ugm-3,1.32673,R,ugm-3,1.93660,R,ugm-3
13-01-2019,07:00,0.90398,R,ugm-3,1.46186,R,ugm-3,2.84795,R,ugm-3
13-01-2019,08:00,3.29049,R,ugm-3,5.66293,R,ugm-3,10.70827,R,ugm-3
13-01-2019,09:00,2.35035,R,ugm-3,2.88950,R,ugm-3,6.49331,R,ugm-3
13-01-2019,10:00,2.24187,R,ugm-3,5.27722,R,ugm-3,8.71471,R,ugm-3
13-01-2019,11:00,3.57976,R,ugm-3,4.64979,R,ugm-3,10.13869,R,ugm-3
13-01-2019,12:00,4.08599,R,ugm-3,5.58235,R,ugm-3,11.84745,R,ugm-3
13-01-2019,13:00,6.47250,R,ugm-3,8.58729,R,ugm-3,18.51164,R,ugm-3
13-01-2019,14:00,10.34153,R,ugm-3,12.16699,R,ugm-3,28.02378,R,ugm-3
13-01-2019,15:00,6.65329,R,ugm-3,9.22141,R,ugm-3,19.42299,R,ugm-3
13-01-2019,16:00,9.47371,R,ugm-3,9.28267,R,ugm-3,23.80882,R,ugm-3
13-01-2019,17:00,9.07596,R,ugm-3,11.48739,R,ugm-3,25.40367,R,ugm-3
13-01-2019,18:00,7.19568,R,ugm-3,9.64286,R,ugm-3,20.67608,R,ugm-3
13-01-2019,19:00,5.93011,R,ugm-3,8.50759,R,ugm-3,17.60030,R,ugm-3
13-01-2019,20:00,4.12215,R,ugm-3,10.71017,R,ugm-3,17.03071,R,ugm-3
13-01-2019,21:00,5.93011,R,ugm-3,6.68491,R,ugm-3,15.77762,R,ugm-3
13-01-2019,22:00,5.60468,R,ugm-3,6.50039,R,ugm-3,15.09411,R,ugm-3
13-01-2019,23:00,1.44637,R,ugm-3,2.96553,R,ugm-3,5.18326,R,ugm-3
13-01-2019,24:00,1.26557,R,ugm-3,1.59094,R,ugm-3,3.53145,R,ugm-3
14-01-2019,01:00,,,,,,,,,
14-01-2019,02:00,0.67528,R,ugm-3,1.01686,R,ugm-3,2.05228,R,ugm-3
14-01-2019,03:00,0.61499,R,ugm-3,0.71025,R,ugm-3,1.65322,R,ugm-3
14-01-2019,04:00,1.26615,R,ugm-3,1.25102,R,ugm-3,3.19243,R,ugm-3
14-01-2019,05:00,1.73644,R,ugm-3,2.41118,R,ugm-3,5.07368,R,ugm-3
14-01-2019,06:00,3.90698,R,ugm-3,6.43704,R,ugm-3,12.42766,R,ugm-3
14-01-2019,07:00,16.67702,R,ugm-3,24.19659,R,ugm-3,49.76766,R,ugm-3
14-01-2019,08:00,34.33079,R,ugm-3,43.36104,R,ugm-3,96.00085,R,ugm-3
14-01-2019,09:00,59.61765,R,ugm-3,61.76706,R,ugm-3,153.17951,R,ugm-3
14-01-2019,10:00,135.26116,R,ugm-3,98.39140,R,ugm-3,305.78895,R,ugm-3
14-01-2019,11:00,63.41610,R,ugm-3,60.16141,R,ugm-3,157.39808,R,ugm-3
14-01-2019,12:00,34.33079,R,ugm-3,30.42031,R,ugm-3,83.06012,R,ugm-3
14-01-2019,13:00,20.40313,R,ugm-3,25.66627,R,ugm-3,56.95063,R,ugm-3
14-01-2019,14:00,25.64861,R,ugm-3,26.74452,R,ugm-3,66.07185,R,ugm-3
14-01-2019,15:00,35.34372,R,ugm-3,36.44920,R,ugm-3,90.64214,R,ugm-3
14-01-2019,16:00,31.21968,R,ugm-3,37.58494,R,ugm-3,85.45444,R,ugm-3
14-01-2019,17:00,25.93802,R,ugm-3,35.47900,R,ugm-3,75.25008,R,ugm-3
14-01-2019,18:00,27.13182,R,ugm-3,29.94304,R,ugm-3,71.54458,R,ugm-3
14-01-2019,19:00,16.74938,R,ugm-3,23.80061,R,ugm-3,49.48263,R,ugm-3
14-01-2019,20:00,14.75971,R,ugm-3,22.40479,R,ugm-3,45.03603,R,ugm-3
14-01-2019,21:00,12.87857,R,ugm-3,20.04446,R,ugm-3,39.79133,R,ugm-3
14-01-2019,22:00,13.56591,R,ugm-3,17.50836,R,ugm-3,38.30913,R,ugm-3
14-01-2019,23:00,6.11370,R,ugm-3,7.61406,R,ugm-3,16.98828,R,ugm-3
14-01-2019,24:00,2.35142,R,ugm-3,3.00742,R,ugm-3,6.61289,R,ugm-3
15-01-2019,01:00,0.86862,R,ugm-3,1.63507,R,ugm-3,2.96693,R,ugm-3
15-01-2019,02:00,1.59246,R,ugm-3,1.38104,R,ugm-3,3.82278,R,ugm-3
15-01-2019,03:00,0.68765,R,ugm-3,2.14077,R,ugm-3,3.19516,R,ugm-3
15-01-2019,04:00,0.57908,R,ugm-3,1.28024,R,ugm-3,2.16814,R,ugm-3
15-01-2019,05:00,1.52008,R,ugm-3,2.17670,R,ugm-3,4.50745,R,ugm-3
15-01-2019,06:00,6.44223,R,ugm-3,6.89662,R,ugm-3,16.77457,R,ugm-3
15-01-2019,07:00,42.20023,R,ugm-3,43.47275,R,ugm-3,108.17887,R,ugm-3
15-01-2019,08:00,71.87793,R,ugm-3,60.33019,R,ugm-3,170.54147,R,ugm-3
15-01-2019,09:00,33.83981,R,ugm-3,39.17497,R,ugm-3,91.06196,R,ugm-3
15-01-2019,10:00,42.16404,R,ugm-3,36.68148,R,ugm-3,101.33210,R,ugm-3
15-01-2019,11:00,36.59043,R,ugm-3,36.72617,R,ugm-3,92.83070,R,ugm-3
15-01-2019,12:00,24.10408,R,ugm-3,26.77289,R,ugm-3,63.73196,R,ugm-3
15-01-2019,13:00,22.94593,R,ugm-3,23.58480,R,ugm-3,58.76806,R,ugm-3
15-01-2019,14:00,28.66431,R,ugm-3,31.13485,R,ugm-3,75.08618,R,ugm-3
15-01-2019,15:00,27.46996,R,ugm-3,37.35949,R,ugm-3,79.47951,R,ugm-3